Regional Weather Roundup
Issued by NWS

Home | Current Version | Previous Version | Graphics & Text | Print | Product List | Glossary On
Versions: 1 2 3 4 5 6 7 8 9 10 11 12 13 14 15 16 17 18 19 20 21 22 23 24 25 26 27 28 29 30 31 32 33 34 35 36 37 38 39 40 41 42 43 44 45 46 47 48 49 50
633
ASUS45 KBOU 132307
RWRCO

WEATHER ROUNDUP FOR COLORADO
NATIONAL WEATHER SERVICE DENVER/BOULDER CO
400 PM MST SAT FEB 13 2016

NOTE: "FAIR" INDICATES FEW OR NO CLOUDS BELOW 12000 FEET WITH NO
SIGNIFICANT WEATHER AND/OR OBSTRUCTIONS TO VISIBILITY.

COZ001>005-013-030-031-140000-
...NORTHWEST COLORADO...

CITY           SKY/WX    TMP DP  RH WIND       PRES   REMARKS
CRAIG          FAIR      35  24  64 CALM      30.17F
HAYDEN         FAIR      32  21  64 CALM      30.16F
MEEKER         FAIR      39  27  62 NE3       30.16S
MOUNT WERNER   NOT AVBL
STEAMBOAT SPGS FAIR      37  23  56 CALM      30.16S
WALDEN         FAIR      36  19  51 SW29      30.10F
$$

COZ006>008-011-140000-
...WEST CENTRAL VALLEYS...

CITY           SKY/WX    TMP DP  RH WIND       PRES   REMARKS
GRAND JUNCTION FAIR      42  34  73 NW5       30.19S
MONTROSE       FAIR      47  29  49 N7        30.20R
EAGLE          CLOUDY    46  19  34 W14G20    30.16R
RIFLE          FAIR      40  24  53 NE5       30.19R
DELTA          FAIR      53  33  46 CALM      30.17S
NUCLA          FAIR      54  27  35 CALM      30.23S
$$

COZ017>023-064>068-140000-
...SOUTHWEST COLORADO...

CITY           SKY/WX    TMP DP  RH WIND       PRES   REMARKS
DURANGO        FAIR      50  20  30 W18       30.14F
CORTEZ         FAIR      56  25  30 W8        30.18R
PAGOSA SPRINGS FAIR      52  17  25 SW15G23   30.16F
TELLURIDE      NOT AVBL
WOLF CREEK PAS FAIR      32  14  47 S22G32    30.33F WCI  19
$$

COZ009-010-012-014-032>034-037-058>063-140000-
...CENTRAL COLORADO...

CITY           SKY/WX    TMP DP  RH WIND       PRES   REMARKS
ASPEN          CLOUDY    42  19  39 NW10G23   30.20R
BUENA VISTA    FAIR      52   2  13 W24G40    30.11R
COPPER MTN     CLOUDY    34   0  23 W25G35    30.26R WCI  21
BERTHOUD PASS  CLOUDY    21  12  68 W26G53    30.22R WCI   4
COTTONWOOD PAS FAIR      45 -18   6 W25G44    30.14R
GUNNISON       FAIR      21  12  68 E6        30.27R WCI  14
KREMMLING      FAIR      30  19  64 CALM      30.17S
LEADVILLE      FAIR      36   5  27 NW23G37   30.21R
MONARCH PASS   FAIR      32   7  34 W31G40    30.37R WCI  17
SALIDA         NOT AVBL
SUNLIGHT       CLOUDY    34  19  55 CALM      30.30R
WILKERSON PASS FAIR      36   0  21 W14G29    30.22R
$$

COZ069>075-140000-
...SAN LUIS VALLEY/SANGRE DE CRISTO MOUNTAINS...

CITY           SKY/WX    TMP DP  RH WIND       PRES   REMARKS
ALAMOSA        FAIR      58  16  19 VRB6      30.09F
LA VETA PASS   FAIR      45  16  31 S10G29    30.14S
SAGUACHE       FAIR      52   9  17 NW26G36   30.13S
$$

COZ035-036-038>040-140000-
...NORTHERN COLORADO FRONT RANGE...

CITY           SKY/WX    TMP DP  RH WIND       PRES   REMARKS
DENVER INTL AP PTSUNNY   61  25  25 NW12      29.96R
DMNS CITY PARK   N/A     62   9  12 N16G32    29.97R
AURORA         PTSUNNY   62  14  15 NW26G38   29.95R
FRONT RANGE AP PTSUNNY   57  28  33 CALM      29.96R
ERIE MUNI ARPT FAIR      64  15  15 W13G20    29.96R
BOULDER MUN AP FAIR      63  16  16 W9        29.96R
CENTENNIAL     PTSUNNY   63   6  10 NW17G28   29.96R
BROOMFIELD     MOSUNNY   63  12  14 NW21G48   29.99R
FORT COLLINS   FAIR      57  27  30 W9        29.95S
LONGMONT       FAIR      64  15  14 W13G30    29.97R
$$

COZ041-046-047-076>085-087-088-140000-
...PIKES PEAK/PALMER DIVIDE AND SOUTHERN FOOTHILLS...

CITY           SKY/WX    TMP DP  RH WIND       PRES   REMARKS
COLO. SPRINGS  FAIR      64   2   8 NW21      29.97R
A. F. ACADEMY  FAIR      60   1   9 NW22G31   29.98R
SCHRIEVER AFB  FAIR      62   7  11 W18G32    29.97R
ELLICOTT       FAIR     N/A N/A N/A NW21      29.94R
FALCON         FAIR      59  14  17 N8        30.02R
FORT CARSON    FAIR      67   4   8 NE5       29.93R
LIMON          FAIR      49  36  61 N5        29.95R
MONUMENT HILL  FAIR      48  23  37 NE7       30.03R
TRINIDAD       FAIR      70   7   8 NW13      29.95F
$$

COZ042>045-048>051-090-091-140000-
...NORTHEAST COLORADO...

CITY           SKY/WX    TMP DP  RH WIND       PRES   REMARKS
GREELEY ARPT   FAIR      43  36  75 SW3       29.96R
AKRON          FAIR      46  35  65 SW12      29.91S
BURLINGTON     FAIR      34  30  85 S6        29.96S WCI  29
WRAY           FAIR      39  32  74 SE8       29.95F
STERLING       FAIR      39  36  87 SW9       29.89S
HOLYOKE        FAIR      37  34  87 S13       29.92F
FORT MORGAN    FAIR      41  34  74 W13       29.92F
$$

COZ086-089-092>099-140000-
...SOUTHEAST COLORADO...

CITY           SKY/WX    TMP DP  RH WIND       PRES   REMARKS
PUEBLO         FAIR      73  -1   5 W26G37    29.88S
LA JUNTA       FAIR      52  31  44 E8        29.91S
LAMAR          FAIR      49  31  49 NE8       29.91F
SPRINGFIELD      N/A     69  29  22 NE14      29.88F
$$




USA.gov is the U.S. government's official web portal to all federal, state and local government web resources and services.